Regional Weather Roundup
Issued by NWS Cleveland, OH

Home | Current Version | Previous Version | Text Only | Print | Product List | Glossary On
Versions: 1 2 3 4 5 6 7 8 9 10 11 12 13 14 15 16 17 18 19 20 21 22 23 24 25 26 27 28 29 30 31 32 33 34 35 36 37 38 39 40 41 42 43 44 45 46 47 48 49 50
000
ASUS41 KCLE 212212
RWRCLE
OHIO REGIONAL WEATHER ROUNDUP
NATIONAL WEATHER SERVICE WILMINGTON, OH
600 PM EDT SAT OCT 21 2017

NOTE: "FAIR" INDICATES FEW OR NO CLOUDS BELOW 12,000 FEET WITH NO
SIGNIFICANT WEATHER AND/OR OBSTRUCTIONS TO VISIBILITY.

OHZ001>008-015>018-024>027-034-035-043-044-212300-
   NORTHWEST OHIO

CITY           SKY/WX    TMP DP  RH WIND       PRES   REMARKS
DEFIANCE       FAIR      74  48  39 S7        30.15S
FINDLAY        FAIR      73  40  30 S13       30.16R
TOLEDO EXPRESS FAIR      74  55  51 S5        30.15S
TOLEDO EXEC    FAIR      73  54  51 SE7       30.17R
LIMA           FAIR      71  47  42 S9        30.18S
$$

OHZ009>014-019>023-028>033-038-089-212300-
   NORTHEAST OHIO

CITY           SKY/WX    TMP DP  RH WIND       PRES   REMARKS
CLE-HOPKINS    MOCLDY    71  51  49 SE7       30.22F
CLE-LAKEFRONT  FAIR      73  46  38 SE7       30.20S
CUY CO. ARPT   MOCLDY    72  45  37 S3        30.23S
LORAIN-ELYRIA  FAIR      68  47  46 SE7       30.20F
ASHTABULA      FAIR      68  49  50 S3        30.24S
AKRON-CANTON   MOCLDY    65  48  54 S7        30.25R
WOOSTER        FAIR      67  51  56 SE5       30.24S
MANSFIELD      FAIR      70  50  49 SE9       30.22F
YOUNGSTOWN     MOCLDY    69  50  50 SE7       30.25S
$$

OHZ042-051>053-060>062-070>072-077>081-212300-
  SOUTHWEST OHIO

CITY           SKY/WX    TMP DP  RH WIND       PRES   REMARKS
CINC-COVINGTON MOCLDY    68  53  58 S5        30.20F
CINC-LUNKEN    FAIR      70  60  70 CALM      30.21S
HAMILTON       FAIR      73  48  41 S6        30.21F
DAYTON         MOCLDY    69  49  48 S13       30.21F
WRIGHT-PAT AFB MOCLDY    70  46  41 S9        30.20F
DAYTON GENERAL FAIR      69  47  45 S6        30.21S
WILMINGTON     FAIR      68  51  54 S5        30.22S
$$

OHZ036-037-039>041-045>050-054>059-063>069-073>076-082>088-212300-
  CENTRAL AND SOUTHEAST OHIO

CITY           SKY/WX    TMP DP  RH WIND       PRES   REMARKS
COLUMBUS       MOCLDY    73  53  49 SE9       30.21S
OSU AIRPORT    FAIR      71  55  56 S8        30.21S
BOLTON FIELD   CLEAR     73  48  40 S6        30.22S
RICKENBACK AFB FAIR      72  53  50 S8        30.22R
NEWARK         FAIR      72  52  49 S3        30.22S
MARION         FAIR      72  51  47 S10       30.21R
LANCASTER      FAIR      70  54  56 SE6       30.23S
ZANESVILLE     FAIR      69  54  58 SE5       30.24F
NEW PHILLY     FAIR      69  52  54 S3        30.25S
$$



USA.gov is the U.S. government's official web portal to all federal, state and local government web resources and services.